[[{"header":{"parameterUnit":"m.s-1","parameterCategory":1,"la1":30.2991,"la2":30.254,"lo1":-89.0895,"lo2":-89.0444,"dy":0.0017,"dx":0.0017,"nx":28,"ny":28,"refTime":"2025-07-16T03:00:00:Z","depth":0,"parameterNumber":2,"parameterNumberName":"U-component_of_WINDS"},"data":[0,0,0,0,0,0,0,0,0,0,0,0,0,0,0,0,0,0,0,0,0,0,0,0,0,0,0,0,0,0,0,0,0,0,0,0,0,0,0,0,0,0,0,0,0,0,0,0,0,0,0,0,0,0,0,0,0,0,-2.6159,-2.6161,0,-2.6322,-2.6324,-2.6325,-2.6432,-2.6432,-2.6433,-2.6434,-2.6595,-2.6598,-2.6602,0,0,0,0,0,0,0,0,0,0,0,0,0,-2.5935,-2.5939,-2.6159,-2.6161,-2.6163,-2.6321,-2.6324,-2.6326,-2.6432,-2.6432,-2.6433,-2.6434,-2.6594,-2.6598,-2.6602,0,0,0,0,0,0,0,0,0,0,0,0,0,-2.6058,-2.594,-2.6158,-2.6235,-2.6243,-2.6321,-2.6324,-2.6326,-2.6431,-2.6432,-2.6433,-2.6434,-2.6592,-2.6597,-2.6603,-2.6615,0,0,-2.6619,-2.6622,0,0,0,0,0,0,0,0,-2.6051,-2.6066,-2.6222,-2.623,-2.6239,-2.6358,-2.6304,-2.6423,-2.6431,-2.636,-2.6434,-2.6435,-2.6515,-2.6526,-2.6555,-2.6623,-2.663,-2.662,-2.6623,-2.6626,-2.6627,0,0,0,0,0,0,0,-2.6043,-2.606,-2.6223,-2.6224,-2.6235,-2.626,-2.6278,-2.6327,-2.6429,-2.6366,-2.6374,-2.6392,-2.652,-2.6549,-2.6559,-2.6632,-2.662,-2.6625,-2.6628,-2.663,-2.672,-2.6719,0,0,0,0,0,0,-2.6023,-2.6052,-2.6218,-2.6228,-2.6146,-2.6263,-2.6284,-2.6318,-2.6429,-2.6447,-2.6391,-2.6397,-2.6539,-2.6553,-2.6565,-2.6587,-2.6626,-2.6631,-2.6634,-2.6721,-2.672,-2.6719,0,0,0,0,0,0,-2.6017,-2.6036,-2.6211,-2.6142,-2.6167,-2.6266,-2.6304,-2.6321,-2.6351,-2.6448,-2.6466,-2.6403,-2.6541,-2.6557,-2.6603,-2.6594,-2.6633,-2.6638,-2.6722,-2.6721,-2.6719,-2.6631,0,0,0,0,0,0,-2.6011,-2.6034,-2.604,-2.6142,-2.617,-2.6247,-2.6303,-2.6323,-2.636,-2.6369,-2.6464,-2.648,-2.6543,-2.6594,-2.6608,-2.6602,-2.6642,-2.6723,-2.6721,-2.672,-2.6635,-2.6627,-2.662,0,0,0,0,0,-2.6002,-2.6008,-2.604,-2.606,-2.618,-2.6246,-2.6262,-2.6335,-2.6359,-2.6366,-2.6429,-2.6477,-2.6594,-2.6598,-2.6615,-2.661,-2.6724,-2.6722,-2.672,-2.6638,-2.6628,-2.662,0,0,0,0,0,0,-2.59,-2.6022,-2.606,-2.6098,-2.6161,-2.6264,-2.6275,-2.6322,-2.6378,-2.6383,-2.6471,-2.6491,-2.6527,-2.6574,-2.6576,-2.6629,-2.6664,-2.6666,-2.6597,-2.6588,-2.658,-2.6567,-2.6647,0,0,0,0,0,-2.5882,-2.5927,-2.6031,-2.6055,-2.6085,-2.6174,-2.6206,-2.6257,-2.6325,-2.6351,-2.6418,-2.648,-2.6531,-2.6563,-2.6615,-2.6643,-2.6665,-2.6649,-2.6641,-2.6634,-2.6633,-2.6652,-2.6646,-2.6712,-2.6712,-2.6713,0,0,-2.5845,-2.5918,-2.594,-2.6036,-2.6091,-2.6134,-2.6196,-2.6238,-2.6271,-2.6358,-2.6404,-2.6455,-2.6531,-2.6568,-2.6588,-2.6608,-2.6621,-2.6632,-2.6626,-2.6629,-2.6649,-2.6643,-2.6637,-2.6711,-2.6711,-2.6712,0,0,-2.5799,-2.5859,-2.5886,-2.5941,-2.6024,-2.6084,-2.609,-2.6187,-2.6225,-2.6274,-2.634,-2.638,-2.6465,-2.6517,-2.6554,-2.6531,-2.6577,-2.6546,-2.6504,-2.6521,-2.6516,-2.6512,-2.6502,-2.6498,-2.6545,-2.6545,-2.6545,0,-2.5742,-2.5811,-2.5893,-2.5933,-2.5973,-2.6057,-2.6084,-2.6132,-2.6227,-2.6252,-2.6275,-2.6385,-2.6442,-2.6492,-2.6487,-2.6515,-2.6524,-2.6534,-2.6511,-2.6507,-2.6504,-2.6496,-2.6492,-2.654,-2.6541,-2.6541,-2.6542,0,-2.5736,-2.5783,-2.5794,-2.5887,-2.5929,-2.5961,-2.6047,-2.608,-2.6128,-2.6185,-2.6234,-2.6307,-2.6375,-2.6391,-2.6438,-2.6448,-2.6458,-2.6494,-2.6531,-2.6492,-2.6486,-2.6483,-2.6534,-2.6536,-2.6537,-2.6538,0,0,-2.5626,-2.5767,-2.5769,-2.5812,-2.5912,-2.5949,-2.5986,-2.6055,-2.6081,-2.6145,-2.6176,-2.6249,-2.6284,-2.6326,-2.638,-2.6395,-2.6371,-2.643,-2.6433,-2.6415,-2.6386,-2.6356,-2.6351,-2.6404,-2.6404,-2.6404,-2.6379,0,-2.5594,-2.5666,-2.5742,-2.5787,-2.5831,-2.5913,-2.5945,-2.6009,-2.6064,-2.6108,-2.6169,-2.6218,-2.6261,-2.6288,-2.6307,-2.637,-2.6366,-2.6373,-2.6432,-2.6434,-2.6408,-2.6348,-2.6317,-2.629,-2.6377,-2.6377,-2.6377,0,-2.5565,-2.5627,-2.5676,-2.5774,-2.5795,-2.5822,-2.5893,-2.5935,-2.6009,-2.6048,-2.6097,-2.6155,-2.6198,-2.6232,-2.6291,-2.6294,-2.6323,-2.6358,-2.6359,-2.6365,-2.64,-2.635,-2.6283,-2.6278,-2.6374,-2.6374,-2.6374,0,-2.5478,-2.5574,-2.5617,-2.5651,-2.5766,-2.5783,-2.5831,-2.5907,-2.5945,-2.6006,-2.6031,-2.6095,-2.613,-2.6178,-2.6252,-2.6271,-2.6302,-2.6343,-2.6334,-2.6332,-2.6334,-2.6333,-2.6268,-2.6357,-2.6357,-2.6357,-2.6357,0,-2.5432,-2.5458,-2.5579,-2.5604,-2.5637,-2.5725,-2.5754,-2.5809,-2.5877,-2.5913,-2.5989,-2.6021,-2.6118,-2.6162,-2.6221,-2.626,-2.6275,-2.6307,-2.6321,-2.6299,-2.6294,-2.6317,-2.6319,-2.6356,-2.6357,-2.6357,-2.6357,0,-2.5338,-2.5421,-2.5472,-2.5578,-2.5605,-2.5624,-2.5714,-2.5741,-2.5802,-2.5848,-2.5864,-2.5959,-2.6015,-2.6095,-2.6174,-2.6214,-2.6243,-2.6269,-2.6218,-2.6227,-2.6213,-2.6212,-2.6158,-2.6155,-2.6247,-2.6246,-2.6246,0,-2.5302,-2.5325,-2.5434,-2.5466,-2.5512,-2.5561,-2.56,-2.5689,-2.5726,-2.5814,-2.583,-2.5893,-2.5947,-2.6033,-2.6108,-2.617,-2.6195,-2.6173,-2.6205,-2.6181,-2.6192,-2.6189,-2.6191,-2.6163,-2.6162,-2.6161,-2.616,0,-2.5228,-2.5269,-2.5324,-2.5393,-2.5438,-2.5496,-2.5558,-2.5579,-2.568,-2.5718,-2.5778,-2.582,-2.5904,-2.5964,-2.6037,-2.6085,-2.6138,-2.615,-2.6151,-2.6126,-2.6095,-2.611,-2.6194,-2.6149,-2.6151,-2.6151,-2.6152,-2.6152,-2.5161,-2.5186,-2.5267,-2.5325,-2.5382,-2.5438,-2.547,-2.5536,-2.5588,-2.5663,-2.5713,-2.5769,-2.5845,-2.5948,-2.5994,-2.6039,-2.6061,-2.6062,-2.6062,-2.6061,-2.6052,-2.6091,-2.6053,-2.6053,-2.6054,-2.6054,-2.6054,0,-2.509,-2.5147,-2.52,-2.5286,-2.5332,-2.5382,-2.5453,-2.5488,-2.5537,-2.5604,-2.5658,-2.5726,-2.5786,-2.5867,-2.5933,-2.5953,-2.5979,-2.5967,-2.5965,-2.5975,-2.603,-2.6021,-2.5945,-2.5945,-2.5945,-2.5945,-2.5945,-2.5945,-2.5057,-2.5101,-2.5151,-2.5224,-2.5281,-2.5339,-2.5375,-2.5427,-2.5481,-2.5555,-2.5606,-2.566,-2.5733,-2.5805,-2.5862,-2.5884,-2.5903,-2.5883,-2.5912,-2.5961,-2.5971,-2.598,-2.5973,-2.5887,-2.5887,-2.5854,-2.5853,-2.5853]},{"header":{"parameterUnit":"m.s-1","parameterCategory":1,"la1":30.2991,"la2":30.254,"lo1":-89.0895,"lo2":-89.0444,"dy":0.0017,"dx":0.0017,"nx":28,"ny":28,"refTime":"2025-07-16T03:00:00:Z","depth":0,"parameterNumber":3,"parameterNumberName":"V-component_of_WINDS"},"data":[0,0,0,0,0,0,0,0,0,0,0,0,0,0,0,0,0,0,0,0,0,0,0,0,0,0,0,0,0,0,0,0,0,0,0,0,0,0,0,0,0,0,0,0,0,0,0,0,0,0,0,0,0,0,0,0,0,0,0.4694,0.4695,0,0.4802,0.4803,0.4804,0.4862,0.4862,0.4862,0.4862,0.4971,0.4974,0.4976,0,0,0,0,0,0,0,0,0,0,0,0,0,0.4538,0.454,0.4694,0.4696,0.4697,0.4802,0.4803,0.4805,0.4862,0.4862,0.4862,0.4862,0.497,0.4973,0.4977,0,0,0,0,0,0,0,0,0,0,0,0,0,0.4622,0.4541,0.4694,0.4738,0.4743,0.4801,0.4803,0.4805,0.4862,0.4862,0.4862,0.4862,0.4969,0.4973,0.4977,0.4999,0,0,0.499,0.4992,0,0,0,0,0,0,0,0,0.4617,0.4627,0.473,0.4735,0.4741,0.4819,0.4788,0.487,0.4862,0.4817,0.4862,0.4863,0.492,0.4928,0.4948,0.5004,0.5009,0.499,0.4993,0.4994,0.4996,0,0,0,0,0,0,0,0.4611,0.4623,0.4737,0.4732,0.4738,0.4752,0.4765,0.4804,0.4866,0.4821,0.4825,0.4837,0.4923,0.4944,0.4951,0.501,0.499,0.4994,0.4996,0.4998,0.5091,0.5091,0,0,0,0,0,0,0.4598,0.4618,0.4733,0.474,0.4678,0.4755,0.4769,0.4794,0.4866,0.4877,0.4837,0.484,0.4937,0.4946,0.4955,0.4986,0.4994,0.4998,0.5001,0.5091,0.5091,0.5091,0,0,0,0,0,0,0.4594,0.4608,0.4729,0.468,0.4697,0.4758,0.4785,0.4796,0.4816,0.4878,0.4889,0.4847,0.4937,0.4949,0.4988,0.4991,0.5,0.5004,0.5091,0.5091,0.5091,0.5048,0,0,0,0,0,0,0.459,0.4606,0.4615,0.468,0.4699,0.476,0.4785,0.4798,0.4824,0.4828,0.489,0.4901,0.4938,0.4982,0.4992,0.4997,0.5007,0.5091,0.5091,0.5091,0.505,0.5047,0.5044,0,0,0,0,0,0.4584,0.4598,0.4615,0.4629,0.4712,0.476,0.4771,0.4814,0.4824,0.4833,0.4873,0.4899,0.4989,0.4985,0.4998,0.5003,0.5091,0.5091,0.5091,0.5051,0.5047,0.5044,0,0,0,0,0,0,0.4531,0.4607,0.4627,0.4663,0.4705,0.477,0.4783,0.4809,0.4849,0.4851,0.4903,0.4916,0.4951,0.4981,0.4975,0.5029,0.5043,0.5045,0.5008,0.5005,0.5002,0.4994,0.5011,0,0,0,0,0,0.4523,0.4557,0.4622,0.4647,0.4667,0.4721,0.4744,0.4774,0.4819,0.4837,0.488,0.4922,0.4961,0.4985,0.5023,0.5055,0.507,0.5065,0.5062,0.506,0.5061,0.5081,0.508,0.5091,0.5091,0.5091,0,0,0.4508,0.4554,0.4572,0.4637,0.4673,0.4707,0.4736,0.477,0.4795,0.4842,0.4882,0.4915,0.4966,0.5002,0.502,0.5028,0.5062,0.506,0.5057,0.506,0.5081,0.508,0.5079,0.5091,0.5091,0.5091,0,0,0.4497,0.4535,0.4561,0.4597,0.4652,0.4688,0.4694,0.4756,0.478,0.4821,0.4857,0.4888,0.4952,0.4988,0.5014,0.5019,0.5044,0.503,0.5015,0.5035,0.5034,0.5033,0.5035,0.5036,0.5031,0.5031,0.5031,0,0.4471,0.4524,0.457,0.4603,0.4631,0.4677,0.4703,0.4735,0.4799,0.4818,0.4827,0.4909,0.4947,0.4992,0.4993,0.5013,0.5022,0.5023,0.503,0.503,0.503,0.5033,0.5034,0.5029,0.5029,0.5029,0.503,0,0.4489,0.4525,0.4539,0.4601,0.4631,0.466,0.4711,0.4736,0.4764,0.4799,0.4841,0.4888,0.4937,0.495,0.4977,0.4999,0.5003,0.502,0.5035,0.5026,0.503,0.5031,0.5026,0.5027,0.5027,0.5028,0,0,0.4446,0.4535,0.454,0.4569,0.4634,0.4662,0.4694,0.4743,0.4763,0.4806,0.4834,0.4889,0.4906,0.4935,0.4967,0.4984,0.4985,0.4999,0.5001,0.4995,0.5014,0.5001,0.5001,0.5003,0.5003,0.5004,0.501,0,0.4445,0.4505,0.4549,0.4591,0.4625,0.467,0.4698,0.474,0.4775,0.4809,0.4846,0.4884,0.4903,0.4922,0.4941,0.4981,0.499,0.4981,0.503,0.5031,0.5015,0.5003,0.4989,0.4993,0.5012,0.5012,0.5012,0,0.4451,0.4494,0.454,0.4603,0.4619,0.4643,0.4692,0.4724,0.4774,0.4798,0.4832,0.4865,0.49,0.4912,0.4963,0.4956,0.4979,0.5002,0.5003,0.5009,0.5021,0.5009,0.4995,0.4995,0.5015,0.5014,0.5014,0,0.4416,0.4485,0.4522,0.4546,0.4619,0.4635,0.4667,0.4717,0.4744,0.4787,0.4805,0.4852,0.4877,0.4912,0.4957,0.4961,0.5003,0.5018,0.5024,0.5023,0.503,0.5029,0.502,0.5044,0.5044,0.5044,0.5044,0,0.441,0.4436,0.4508,0.453,0.4562,0.4613,0.4642,0.4677,0.4722,0.4752,0.4793,0.4821,0.4878,0.4913,0.4948,0.4985,0.4996,0.5017,0.5026,0.5013,0.501,0.5028,0.5029,0.5045,0.5045,0.5045,0.5045,0,0.4375,0.4424,0.4468,0.4534,0.4552,0.4572,0.4629,0.4653,0.4691,0.4729,0.4741,0.4799,0.4842,0.4891,0.4949,0.4973,0.5008,0.5021,0.4991,0.4996,0.5,0.4999,0.5001,0.5005,0.5026,0.5026,0.5026,0,0.4368,0.439,0.446,0.4483,0.4514,0.4551,0.458,0.4631,0.4659,0.4718,0.4735,0.4782,0.4822,0.4889,0.4936,0.4982,0.4997,0.4995,0.5004,0.4991,0.4997,0.4995,0.4998,0.4992,0.4991,0.4991,0.499,0,0.435,0.4374,0.4413,0.4462,0.4495,0.4536,0.4578,0.4595,0.4655,0.4684,0.473,0.4761,0.4822,0.4868,0.492,0.4952,0.4981,0.4987,0.4991,0.4978,0.4961,0.4971,0.4984,0.4987,0.4987,0.4987,0.4988,0.4988,0.4329,0.4351,0.4404,0.4448,0.4485,0.4524,0.4551,0.4592,0.4631,0.4685,0.4713,0.4758,0.4809,0.4882,0.4913,0.495,0.4959,0.4964,0.4966,0.4966,0.4963,0.4955,0.4959,0.4959,0.4959,0.496,0.496,0,0.4314,0.4351,0.439,0.4449,0.4483,0.4509,0.4557,0.4584,0.4624,0.4669,0.4708,0.4761,0.4806,0.4858,0.4906,0.4925,0.494,0.4936,0.4935,0.4943,0.4951,0.4944,0.4924,0.4924,0.4924,0.4924,0.4924,0.4924,0.431,0.4349,0.4379,0.4437,0.4474,0.4519,0.4545,0.4581,0.4618,0.4675,0.4713,0.4747,0.4795,0.4848,0.4891,0.4905,0.4921,0.4914,0.4932,0.4939,0.4942,0.4945,0.4937,0.4917,0.4917,0.492,0.492,0.492]}]]